Hourly Weather Lubiesz

Today, 7 July, Tuesday

Time Temperature Precipitation Wind Pressure Humidity
00:00 +12°C° 0 mm 4 mps 749 mmHg 80%
01:00 +11°C° 0 mm 3 mps 750 mmHg 83%
02:00 +11°C° 0 mm 4 mps 750 mmHg 83%
03:00 +11°C° 0 mm 4 mps 750 mmHg 83%
04:00 +9°C° 0 mm 5 mps 750 mmHg 84%
05:00 +10°C° 0 mm 5 mps 750 mmHg 79%
06:00 +12°C° 0 mm 5 mps 751 mmHg 75%
07:00 +13°C° 0 mm 5 mps 751 mmHg 70%
08:00 +14°C° 0 mm 5 mps 751 mmHg 65%
09:00 +15°C° 0 mm 5 mps 752 mmHg 61%
10:00 +16°C° 0 mm 5 mps 752 mmHg 56%
11:00 +16°C° 0 mm 5 mps 752 mmHg 54%
12:00 +17°C° 0 mm 5 mps 752 mmHg 52%
13:00 +18°C° 0 mm 4 mps 752 mmHg 52%
14:00 +18°C° 0.1 mm 4 mps 752 mmHg 52%
15:00 +19°C° 0.1 mm 4 mps 752 mmHg 52%
16:00 +19°C° 0.1 mm 4 mps 751 mmHg 52%
17:00 +18°C° 0.1 mm 3 mps 751 mmHg 56%
18:00 +18°C° 0.1 mm 3 mps 751 mmHg 60%
19:00 +17°C° 0.1 mm 3 mps 750 mmHg 65%
20:00 +16°C° 0 mm 2 mps 750 mmHg 68%
21:00 +14°C° 0 mm 2 mps 750 mmHg 71%
22:00 +13°C° 0 mm 2 mps 750 mmHg 75%
23:00 +13°C° 0.3 mm 2 mps 750 mmHg 80%

Tomorrow, 8 July, Wednesday

Time Temperature Precipitation Wind Pressure Humidity
00:00 +12°C° 0.3 mm 3 mps 749 mmHg 85%
01:00 +12°C° 0.3 mm 3 mps 749 mmHg 91%
02:00 +11°C° 0.3 mm 3 mps 749 mmHg 92%
03:00 +11°C° 0.3 mm 4 mps 749 mmHg 92%
04:00 +10°C° 0.3 mm 4 mps 749 mmHg 93%
05:00 +11°C° 0 mm 4 mps 749 mmHg 90%
06:00 +11°C° 0 mm 4 mps 749 mmHg 88%
07:00 +12°C° 0 mm 4 mps 749 mmHg 85%
08:00 +13°C° 0.1 mm 4 mps 750 mmHg 77%
09:00 +14°C° 0.1 mm 5 mps 750 mmHg 70%
10:00 +16°C° 0.1 mm 5 mps 750 mmHg 63%
11:00 +16°C° 0.3 mm 5 mps 750 mmHg 63%
12:00 +16°C° 0.3 mm 5 mps 750 mmHg 63%
13:00 +16°C° 0.3 mm 5 mps 750 mmHg 64%
14:00 +16°C° 0.4 mm 5 mps 749 mmHg 65%
15:00 +17°C° 0.4 mm 4 mps 749 mmHg 67%
16:00 +17°C° 0.4 mm 4 mps 749 mmHg 68%
17:00 +17°C° 0.4 mm 4 mps 749 mmHg 74%
18:00 +16°C° 0.4 mm 3 mps 749 mmHg 79%
19:00 +14°C° 0.4 mm 3 mps 750 mmHg 84%
20:00 +13°C° 0 mm 3 mps 750 mmHg 88%
21:00 +13°C° 0 mm 2 mps 750 mmHg 92%
22:00 +12°C° 0 mm 2 mps 751 mmHg 96%
23:00 +12°C° 0 mm 2 mps 751 mmHg 96%

Day after tomorrow, 9 July, Thursday

Time Temperature Precipitation Wind Pressure Humidity
00:00 +10°C° 0 mm 2 mps 751 mmHg 96%
01:00 +10°C° 0 mm 2 mps 751 mmHg 96%
02:00 +10°C° 0 mm 2 mps 751 mmHg 96%
03:00 +10°C° 0 mm 1 mps 751 mmHg 96%
04:00 +10°C° 0 mm 1 mps 751 mmHg 96%
05:00 +11°C° 0 mm 1 mps 752 mmHg 90%
06:00 +13°C° 0 mm 2 mps 752 mmHg 85%
07:00 +14°C° 0 mm 2 mps 752 mmHg 80%
08:00 +16°C° 0 mm 2 mps 752 mmHg 72%
09:00 +17°C° 0 mm 2 mps 752 mmHg 64%
10:00 +19°C° 0 mm 3 mps 752 mmHg 56%
11:00 +19°C° 0.2 mm 2 mps 752 mmHg 57%
12:00 +19°C° 0.2 mm 2 mps 752 mmHg 58%
13:00 +20°C° 0.2 mm 2 mps 752 mmHg 59%
14:00 +19°C° 0.6 mm 2 mps 751 mmHg 66%
15:00 +20°C° 0.6 mm 1 mps 751 mmHg 72%
16:00 +19°C° 0.6 mm 1 mps 751 mmHg 79%
17:00 +18°C° 0.1 mm 1 mps 751 mmHg 82%
18:00 +16°C° 0.1 mm 1 mps 751 mmHg 85%
19:00 +16°C° 0.1 mm 1 mps 750 mmHg 89%
20:00 +15°C° 0 mm 1 mps 750 mmHg 90%
21:00 +15°C° 0 mm 1 mps 750 mmHg 92%
22:00 +15°C° 0 mm 1 mps 750 mmHg 93%
23:00 +15°C° 0 mm 1 mps 750 mmHg 94%

10 July, Friday

Time Temperature Precipitation Wind Pressure Humidity
00:00 +15°C° 0 mm 1 mps 750 mmHg 95%
01:00 +15°C° 0 mm 1 mps 750 mmHg 96%
02:00 +15°C° 0.1 mm 2 mps 749 mmHg 97%
03:00 +15°C° 0.1 mm 2 mps 749 mmHg 97%
04:00 +14°C° 0.1 mm 3 mps 748 mmHg 98%
05:00 +16°C° 0 mm 3 mps 748 mmHg 96%
06:00 +16°C° 0 mm 3 mps 747 mmHg 94%
07:00 +17°C° 0 mm 3 mps 747 mmHg 92%
08:00 +18°C° 0.3 mm 4 mps 746 mmHg 88%
09:00 +20°C° 0.3 mm 5 mps 746 mmHg 84%
10:00 +21°C° 0.3 mm 5 mps 746 mmHg 79%
11:00 +21°C° 0.7 mm 5 mps 745 mmHg 80%
12:00 +21°C° 0.7 mm 5 mps 745 mmHg 81%
13:00 +21°C° 0.7 mm 5 mps 745 mmHg 82%
14:00 +22°C° 0.2 mm 6 mps 744 mmHg 78%
15:00 +22°C° 0.2 mm 6 mps 744 mmHg 75%
16:00 +22°C° 0.2 mm 7 mps 744 mmHg 71%
17:00 +21°C° 0.5 mm 6 mps 744 mmHg 74%
18:00 +20°C° 0.5 mm 6 mps 745 mmHg 78%
19:00 +17°C° 0.5 mm 5 mps 745 mmHg 82%
20:00 +16°C° 0 mm 5 mps 746 mmHg 80%
21:00 +14°C° 0 mm 5 mps 747 mmHg 79%
22:00 +12°C° 0 mm 4 mps 747 mmHg 78%
23:00 +12°C° 0 mm 5 mps 748 mmHg 77%

11 July, Saturday

Time Temperature Precipitation Wind Pressure Humidity
00:00 +12°C° 0 mm 5 mps 748 mmHg 76%
01:00 +10°C° 0 mm 5 mps 749 mmHg 76%
02:00 +10°C° 0 mm 6 mps 749 mmHg 76%
03:00 +10°C° 0 mm 6 mps 749 mmHg 76%
04:00 +10°C° 0 mm 6 mps 750 mmHg 77%
05:00 +10°C° 0 mm 6 mps 750 mmHg 74%
06:00 +11°C° 0 mm 6 mps 751 mmHg 72%
07:00 +11°C° 0 mm 7 mps 751 mmHg 70%
08:00 +14°C° 0 mm 7 mps 752 mmHg 65%
09:00 +15°C° 0 mm 7 mps 752 mmHg 60%
10:00 +16°C° 0 mm 6 mps 752 mmHg 56%
11:00 +17°C° 0 mm 6 mps 753 mmHg 53%
12:00 +17°C° 0 mm 6 mps 753 mmHg 51%
13:00 +19°C° 0 mm 6 mps 753 mmHg 49%
14:00 +19°C° 0 mm 6 mps 753 mmHg 50%
15:00 +19°C° 0 mm 5 mps 753 mmHg 50%
16:00 +19°C° 0 mm 5 mps 754 mmHg 50%
17:00 +18°C° 0 mm 4 mps 754 mmHg 55%
18:00 +17°C° 0 mm 3 mps 754 mmHg 60%
19:00 +16°C° 0 mm 2 mps 754 mmHg 64%
20:00 +15°C° 0 mm 2 mps 754 mmHg 70%
21:00 +13°C° 0 mm 2 mps 755 mmHg 76%
22:00 +12°C° 0 mm 2 mps 755 mmHg 82%
23:00 +12°C° 0 mm 2 mps 755 mmHg 84%

12 July, Sunday

Time Temperature Precipitation Wind Pressure Humidity
00:00 +10°C° 0 mm 2 mps 755 mmHg 85%
01:00 +10°C° 0 mm 2 mps 755 mmHg 87%
02:00 +10°C° 0 mm 2 mps 755 mmHg 88%
03:00 +10°C° 0 mm 3 mps 755 mmHg 89%
04:00 +10°C° 0 mm 3 mps 756 mmHg 89%
05:00 +11°C° 0 mm 3 mps 756 mmHg 83%
06:00 +12°C° 0 mm 4 mps 756 mmHg 77%
07:00 +13°C° 0 mm 4 mps 757 mmHg 70%
08:00 +14°C° 0.1 mm 4 mps 757 mmHg 67%
09:00 +15°C° 0.1 mm 5 mps 757 mmHg 65%
10:00 +16°C° 0.1 mm 5 mps 757 mmHg 62%
11:00 +16°C° 0.2 mm 5 mps 757 mmHg 64%
12:00 +16°C° 0.2 mm 5 mps 758 mmHg 66%
13:00 +15°C° 0.2 mm 5 mps 758 mmHg 68%
14:00 +16°C° 0.1 mm 5 mps 757 mmHg 66%
15:00 +16°C° 0.1 mm 5 mps 757 mmHg 64%
16:00 +17°C° 0.1 mm 6 mps 757 mmHg 62%
17:00 +16°C° 0 mm 5 mps 757 mmHg 66%
18:00 +15°C° 0 mm 4 mps 757 mmHg 70%
19:00 +16°C° 0 mm 3 mps 757 mmHg 74%
20:00 +14°C° 0 mm 3 mps 757 mmHg 81%
21:00 +12°C° 0 mm 3 mps 757 mmHg 87%
22:00 +11°C° 0 mm 3 mps 757 mmHg 94%
23:00 +11°C° 0 mm 3 mps 757 mmHg 95%
Show more